カタログに戻る

STARLINK-1913

運用中通信VLEO
NORAD 47179·PAYLOAD·🇺🇸 United States

打ち上げ Nov 25, 2020 から Cape Canaveral Space Force Station

Loading…

次のパス (今後24時間)

TLE

最新Source: CelesTrak SupGP

元期: Sep 15, 2026, 01:52 UTC

1 47179C 20088BK  26258.07826389  .00089697  00000+0  20005-2 0  2587
2 47179  53.1529 140.5263 0002020  97.9292  70.4454 15.42943843    16

AllMySatでSTARLINK-1913をリアルタイム追跡

Download on the App Store